Flight Track Log - Related Links

Times and Time Zones

All times are in EDT time to prevent confusion due to time zone crossing. See the SKQ225 flight status page for this flight to view local times or setup timezone preferences in your user account.

Time Position Orientation Groundspeed Altitude Reporting Facility
EDT Latitude Longitude Course Direction KTS km/h feet Rate Location/Type
Sat 03:19:15 38.1897 -85.6561 52° Northeast 142 262 3,000  Level Indianapolis Center
Sat 03:20:15 38.2194 -85.6133 49° Northeast 153 283 3,600 600 Climbing Indianapolis Center
Sat 03:21:15 38.2517 -85.5675 48° Northeast 161 298 4,200 650 Climbing Indianapolis Center
Sat 03:22:15 38.2861 -85.5233 45° Northeast 168 311 4,900 650 Climbing Indianapolis Center
Sat 03:23:00 38.3606 -85.4727 38° Northeast  Level FlightAware Approximate
Sat 03:23:15 38.3197 -85.4783 46° Northeast 172 319 5,500  Level Indianapolis Center
Sat 03:24:00 38.3940 -85.4304 46° Northeast  Level FlightAware Approximate
Sat 03:24:15 38.3556 -85.4325 45° Northeast 177 328 6,200  Level Indianapolis Center
Sat 03:25:15 38.3881 -85.3889 46° Northeast 172 319 7,000 350 Climbing Indianapolis Center
Sat 03:26:15 38.4244 -85.3408 46° Northeast 184 341 6,900 -50 Descending Indianapolis Center
Sat 03:27:15 38.4614 -85.2900 47° Northeast 194 359 6,900 50 Level Indianapolis Center
Sat 03:28:15 38.4997 -85.2397 46° Northeast 195 360 7,000  Climbing Indianapolis Center
Sat 03:29:16 38.5394 -85.1886 45° Northeast 197 365 6,900  Descending Indianapolis Center
Sat 03:30:16 38.5767 -85.1389 46° Northeast 196 364 7,000  Climbing Indianapolis Center
Sat 03:31:16 38.6142 -85.0900 46° Northeast 193 357 6,900  Descending Indianapolis Center
Sat 03:32:16 38.6506 -85.0417 46° Northeast 195 360 7,000 50 Climbing Indianapolis Center
Sat 03:33:16 38.6872 -84.9914 47° Northeast 195 360 7,000 50 Level Indianapolis Center
Sat 03:34:16 38.7247 -84.9422 46° Northeast 194 359 7,100 50 Climbing Indianapolis Center
Sat 03:35:16 38.7622 -84.8922 46° Northeast 196 364 7,100  Level Indianapolis Center
Sat 03:36:16 38.8008 -84.8414 46° Northeast 200 370 7,100 -50 Level Indianapolis Center
Sat 03:37:16 38.8383 -84.7903 47° Northeast 197 365 7,000 -50 Descending Indianapolis Center
Sat 03:38:16 38.8750 -84.7386 48° Northeast 197 365 7,000 64 Level Indianapolis Center
Sat 03:38:50 38.9000 -84.7000 50° Northeast 199 369 7,100  Climbing Cincinnati TRACON
Sat 03:39:51 38.9333 -84.6500 49° Northeast 193 357 7,000 -50 Descending Cincinnati TRACON
Sat 03:40:51 38.9833 -84.6000 38° Northeast 191 354 7,000  Level Cincinnati TRACON
Sat 03:41:51 39.0167 -84.5500 49° Northeast 192 356 7,000 50 Level Cincinnati TRACON
Sat 03:42:51 39.0500 -84.5000 49° Northeast 190 352 7,100 50 Climbing Cincinnati TRACON
Sat 03:43:51 39.0833 -84.4500 49° Northeast 190 352 7,100  Level Cincinnati TRACON
Sat 03:45:17 39.1319 -84.3894 44° Northeast 187 346 7,100  Level Indianapolis Center
Sat 03:46:17 39.1700 -84.3397 45° Northeast 192 356 7,100  Level Indianapolis Center
Sat 03:47:17 39.2078 -84.2892 46° Northeast 193 357 7,100 -50 Level Indianapolis Center
Sat 03:48:17 39.2447 -84.2383 47° Northeast 193 357 7,000 -50 Descending Indianapolis Center
Sat 03:49:17 39.2819 -84.1856 48° Northeast 195 360 7,000 50 Level Indianapolis Center
Sat 03:50:17 39.3194 -84.1336 47° Northeast 197 365 7,100 50 Climbing Indianapolis Center
Sat 03:51:17 39.3583 -84.0825 45° Northeast 196 364 7,100  Level Indianapolis Center
Sat 03:52:17 39.3958 -84.0306 47° Northeast 197 365 7,100 -50 Level Indianapolis Center
Sat 03:53:18 39.4342 -83.9781 47° Northeast 198 367 7,000 -50 Descending Indianapolis Center
Sat 03:54:18 39.4728 -83.9253 47° Northeast 200 370 7,000 50 Level Indianapolis Center
Sat 03:55:18 39.5042 -83.8811 47° Northeast 200 370 7,100 50 Climbing Indianapolis Center
Sat 03:56:18 39.5428 -83.8283 46° Northeast 199 369 7,100  Level Indianapolis Center
Sat 03:57:18 39.5806 -83.7758 47° Northeast 199 369 7,100 -50 Level Indianapolis Center
Sat 03:58:18 39.6178 -83.7242 47° Northeast 196 364 7,000 -50 Descending Indianapolis Center
Sat 03:59:18 39.6544 -83.6725 47° Northeast 193 357 7,000 -50 Level Indianapolis Center
Sat 04:00:18 39.6919 -83.6200 47° Northeast 196 364 6,900 -400 Descending Indianapolis Center
Sat 04:01:18 39.7311 -83.5639 48° Northeast 203 377 6,200 -500 Descending Indianapolis Center
Sat 04:02:18 39.7725 -83.5081 46° Northeast 211 391 5,900 -400 Descending Indianapolis Center
Sat 04:03:18 39.8100 -83.4547 48° Northeast 207 383 5,400 -500 Descending Indianapolis Center
Sat 04:04:18 39.8486 -83.4017 47° Northeast 206 381 4,900 -496 Descending Indianapolis Center
Sat 04:05:19 39.8881 -83.3461 47° Northeast 207 383 4,400 -298 Descending Indianapolis Center
Sat 04:06:19 39.9272 -83.2894 48° Northeast 206 381 4,300 -100 Descending Indianapolis Center
Sat 04:08:00 39.9787 -83.2031 52° Northeast  Level FlightAware Approximate
Sat 04:15:00 40.0667 -83.0667 37° Northeast  Level FlightAware Approximate
Sat 04:16:00 40.0798 -83.0732 37° Northeast  Level Estimated

Login

Don't have an account? Register now (free) for customized features, flight alerts, and more!